Location: Sungai Bunut
(2.6333°N, 113.7333°E)
Time: 12:28:10
(UTC+00:00)

ARIANE 5 R/B - Pass Details

Date: 16 October 2021
Orbit: 277 x 33657 km, 2.0° (Epoch: 28 November)

Event Time Altitude Azimuth Distance (km) Brightness Sun altitude
Exits shadow 21:10:23 26° 263° (W) 1,119 2.8 -15.3°
Maximum altitude 21:12:08 70° 184° (S) 424 1.2 -14.8°
Drops below altitude 10° 21:14:07 10° 99° (E) 1,142 4.9 -14.3°
Sets 21:15:29 0° 96° (E) 1,887 6.6 -14.0°
